Date_and_time,latitude,longitude,wind_speed,RelWindDirFrom,WindDirFrom,air_pressure,air_temperature,relative_humidity,Temp,platform_speed_wrt_ground,air_pressure_at_mean_sea_level,platform_orientation
2019-03-27 23:40,50.63045,-96.980765,6.7,10.3,306,983.45,5.6,71,1.69,0.0,1010.67,360.0
2019-03-27 23:50,50.630465,-96.9807733333333,6.5,10.2,310,983.56,5.4,72,1.70,0.0,1010.80,360.0
2019-03-28 00:00,50.63046,-96.9807666666667,6.1,8.9,311,983.74,5.7,71,1.71,0.0,1010.95,360.0
2019-03-28 00:10,50.6304366666667,-96.98073,5.7,9.1,305,983.96,5.4,72,1.70,0.0,1011.19,360.0
2019-03-28 00:20,50.6304466666667,-96.9807583333333,4.8,6.6,304,984.16,5.1,74,1.70,0.0,1011.42,360.0
2019-03-28 00:30,50.630445,-96.98076,3.3,5.2,281,984.28,4.8,75,1.71,0.0,1011.53,360.0
2019-03-28 00:40,50.6304433333333,-96.9807583333333,2.8,4.5,278,984.28,4.7,75,1.71,0.0,1011.52,360.0
2019-03-28 00:50,50.6304433333333,-96.9807616666667,3.8,5.4,266,984.43,4.6,75,1.70,0.0,1011.66,360.0
2019-03-28 01:00,50.630445,-96.9807633333333,3.2,4.5,259,984.54,4.4,76,1.69,0.0,1011.78,0.0
2019-03-28 01:10,50.630445,-96.9807616666667,4.0,6.6,257,984.66,4.3,77,1.69,0.0,1011.91,0.0
2019-03-28 01:20,50.6304433333333,-96.9807633333333,4.6,7.5,254,984.71,4.2,78,1.70,0.0,1011.98,0.0
2019-03-28 01:30,50.63043,-96.9807583333333,4.7,8.9,251,984.70,4.1,81,1.70,0.0,1011.98,0.0
2019-03-28 01:40,50.6304533333333,-96.98077,5.1,7.3,250,984.77,4.1,83,1.70,0.0,1012.07,0.0
2019-03-28 01:50,50.6304416666667,-96.980765,6.3,11.2,252,984.95,4.0,84,1.72,0.0,1012.23,0.0
2019-03-28 02:00,50.6304366666667,-96.980765,6.0,9.1,269,985.15,4.0,84,1.72,0.0,1012.47,360.0
2019-03-28 02:10,50.63044,-96.9807633333333,5.7,9.3,276,985.27,4.0,84,1.69,0.0,1012.60,360.0
2019-03-28 02:20,50.6304416666667,-96.980765,5.4,8.6,274,985.43,3.9,85,1.69,0.0,1012.79,360.0
2019-03-28 02:30,50.630445,-96.9807716666667,5.9,10.1,274,985.46,3.8,85,1.70,0.0,1012.82,360.0
2019-03-28 02:40,50.6304466666667,-96.9807716666667,7.4,12.0,281,985.46,3.8,85,1.71,0.0,1012.83,360.0
2019-03-28 02:50,50.6304483333333,-96.98077,5.9,9.7,284,985.49,3.8,86,1.71,0.0,1012.87,360.0
2019-03-28 03:00,50.6304483333333,-96.98077,6.0,10.3,282,985.65,3.6,87,1.71,0.0,1013.05,360.0
2019-03-28 03:10,50.6304483333333,-96.9807716666667,6.8,10.1,276,985.80,3.5,89,1.72,0.0,1013.22,360.0
2019-03-28 03:20,50.6304516666667,-96.9807683333333,7.0,11.5,270,986.03,3.3,91,1.72,0.0,1013.46,360.0
2019-03-28 03:30,50.6304483333333,-96.980785,7.6,12.0,273,986.14,3.4,91,1.72,0.0,1013.58,360.0
2019-03-28 03:40,50.6304333333333,-96.9807683333333,7.5,10.8,280,986.26,3.4,91,1.72,0.0,1013.70,360.0
2019-03-28 03:50,50.6304416666667,-96.98077,6.4,10.1,283,986.34,3.3,91,1.72,0.0,1013.79,360.0
2019-03-28 04:00,50.630445,-96.9807666666667,5.1,7.8,280,986.33,3.2,92,1.71,0.0,1013.78,0.0
2019-03-28 04:10,50.630455,-96.9807783333333,5.7,8.3,279,986.43,3.1,93,1.71,0.0,1013.90,0.0
2019-03-28 04:20,50.6304433333333,-96.9807833333333,7.2,15.4,286,986.43,3.1,92,1.71,0.0,1013.90,0.0
2019-03-28 04:30,50.6304433333333,-96.9807733333333,10.2,15.6,304,986.44,3.3,89,1.69,0.0,1013.90,0.0
2019-03-28 04:40,50.6304466666667,-96.98077,10.6,16.8,303,986.63,3.3,88,1.71,0.0,1014.10,0.0
2019-03-28 04:50,50.630445,-96.9807666666667,11.2,17.1,302,986.72,3.2,89,1.72,0.0,1014.20,0.0
2019-03-28 05:00,50.630445,-96.9807683333333,10.9,16.5,299,986.91,3.0,90,1.72,0.0,1014.41,38.0
2019-03-28 05:10,50.6304466666667,-96.98077,10.4,16.1,299,987.05,2.9,89,1.71,0.0,1014.58,38.0
2019-03-28 05:20,50.63044,-96.9807783333333,10.2,20.8,310,987.29,2.7,91,1.71,0.0,1014.83,38.0
2019-03-28 05:30,50.630425,-96.9807783333333,10.9,15.8,320,987.54,2.0,99,1.69,0.0,1015.12,38.0
2019-03-28 05:40,50.6304416666667,-96.980775,9.2,14.8,320,987.76,1.5,99,1.69,0.0,1015.37,38.0
2019-03-28 05:50,50.6304483333333,-96.9807633333333,8.7,14.5,322,987.97,1.2,100,1.68,0.0,1015.61,38.0
2019-03-28 06:00,50.6304483333333,-96.9807583333333,9.3,13.6,321,988.03,1.1,100,1.67,0.0,1015.68,90.0
2019-03-28 06:10,50.6304466666667,-96.9807566666667,9.0,12.6,321,988.15,0.9,100,1.68,0.0,1015.82,90.0
2019-03-28 06:20,50.6304483333333,-96.98076,8.4,11.8,323,988.22,0.9,100,1.68,0.0,1015.88,90.0
2019-03-28 06:30,50.63045,-96.9807583333333,7.5,11.3,328,988.33,0.9,99,1.68,0.0,1016.00,90.0
2019-03-28 06:40,50.6304516666667,-96.98076,7.3,11.6,323,988.54,0.7,99,1.68,0.0,1016.22,90.0
2019-03-28 06:50,50.6304666666667,-96.9807616666667,7.0,12.3,317,988.70,0.6,99,1.64,0.0,1016.39,90.0
2019-03-28 07:00,50.6304633333333,-96.980775,9.1,14.6,326,988.91,0.6,95,1.60,0.0,1016.63,360.0
2019-03-28 07:10,50.63046,-96.98077,9.9,15.6,326,989.02,0.5,92,1.61,0.0,1016.75,360.0
2019-03-28 07:20,50.6304583333333,-96.9807683333333,12.5,18.4,335,989.18,0.4,84,1.62,0.0,1016.95,360.0
2019-03-28 07:30,50.6304583333333,-96.9807683333333,11.3,18.6,335,989.39,0.3,82,1.63,0.0,1017.21,360.0
2019-03-28 07:40,50.6304583333333,-96.9807683333333,15.5,22.0,334,989.39,0.1,73,1.63,0.0,1017.23,360.0
2019-03-28 07:50,50.6304583333333,-96.9807683333333,15.7,21.4,335,989.62,-0.2,70,1.62,0.0,1017.49,360.0
2019-03-28 08:00,50.6304566666667,-96.9807683333333,12.7,18.1,332,989.97,-0.4,69,1.62,0.0,1017.87,360.0
2019-03-28 08:10,50.6304566666667,-96.98076,10.8,15.4,329,990.20,-0.6,70,1.61,0.0,1018.11,360.0
2019-03-28 08:20,50.6304566666667,-96.9807533333333,10.8,16.3,334,990.15,-0.7,69,1.61,0.0,1018.06,360.0
2019-03-28 08:30,50.6304583333333,-96.9807633333333,10.2,14.5,332,990.26,-0.8,69,1.61,0.0,1018.19,360.0
2019-03-28 08:40,50.6304566666667,-96.980765,9.4,14.5,324,990.47,-0.9,68,1.61,0.0,1018.42,360.0
2019-03-28 08:50,50.63045,-96.98076,9.8,14.6,320,990.67,-1.0,67,1.60,0.0,1018.63,360.0
2019-03-28 09:00,50.63045,-96.9807616666667,11.0,16.1,329,990.78,-1.1,66,1.61,0.0,1018.76,360.0
2019-03-28 09:10,50.6304483333333,-96.98076,9.4,16.8,328,990.98,-1.2,67,1.62,0.0,1018.97,360.0
2019-03-28 09:20,50.6304483333333,-96.9807616666667,11.5,19.6,326,991.03,-1.3,66,1.64,0.0,1019.03,360.0
2019-03-28 09:30,50.6304483333333,-96.9807616666667,13.4,19.1,335,991.18,-1.4,64,1.65,0.0,1019.21,360.0
2019-03-28 09:40,50.6304533333333,-96.980775,12.0,17.5,338,991.58,-1.5,64,1.66,0.0,1019.64,360.0
2019-03-28 09:50,50.630455,-96.9807716666667,10.5,14.2,340,991.82,-1.7,64,1.65,0.0,1019.91,360.0
2019-03-28 10:00,50.6304516666667,-96.9807633333333,8.8,11.8,337,992.05,-1.8,65,1.63,0.0,1020.16,165.5
2019-03-28 10:10,50.6304183333333,-96.98078,9.4,14.7,326,992.27,-1.9,65,1.62,0.0,1020.40,165.5
2019-03-28 10:20,50.6304366666667,-96.9807666666667,10.8,17.6,324,992.40,-2.0,64,1.61,0.0,1020.54,165.5
2019-03-28 10:30,50.630435,-96.9807683333333,10.8,15.9,326,992.59,-2.3,62,1.61,0.0,1020.75,165.5
2019-03-28 10:40,50.630435,-96.9807716666667,10.3,16.0,328,992.75,-2.5,62,1.61,0.0,1020.93,165.5
2019-03-28 10:50,50.6304366666667,-96.9807666666667,6.8,10.9,329,993.13,-2.6,64,1.62,0.0,1021.34,165.5
2019-03-28 11:00,50.6304366666667,-96.9807666666667,6.7,10.2,329,993.34,-2.7,65,1.62,0.0,1021.57,161.1
2019-03-28 11:10,50.63044,-96.9807916666667,6.2,10.5,333,993.51,-2.8,66,1.62,0.0,1021.75,161.1
2019-03-28 11:20,50.630435,-96.9807533333333,7.9,11.6,335,993.70,-2.8,66,1.63,0.0,1021.95,161.1
2019-03-28 11:30,50.63044,-96.980765,8.5,13.2,343,993.82,-2.8,66,1.63,0.0,1022.07,161.1
2019-03-28 11:40,50.63044,-96.980765,8.8,13.6,340,993.96,-2.8,66,1.61,0.0,1022.23,161.1
2019-03-28 11:50,50.6304383333333,-96.980765,8.0,12.3,339,994.30,-2.8,66,1.59,0.0,1022.59,161.1
2019-03-28 12:00,50.63044,-96.980765,8.2,11.7,332,994.59,-2.8,66,1.59,0.0,1022.89,194.5
2019-03-28 12:10,50.630425,-96.980785,9.3,14.1,324,994.76,-2.9,65,1.60,0.0,1023.07,194.5
2019-03-28 12:20,50.63044,-96.9807733333333,8.9,14.5,340,995.09,-3.0,67,1.60,0.0,1023.44,194.5
2019-03-28 12:30,50.6304416666667,-96.98077,10.3,16.1,337,995.30,-3.3,61,1.60,0.0,1023.68,194.5
2019-03-28 12:40,50.6304433333333,-96.9807683333333,7.7,13.8,329,995.59,-3.4,59,1.60,0.0,1023.99,194.5
2019-03-28 12:50,50.6304433333333,-96.9807666666667,7.6,12.8,304,995.78,-3.6,59,1.58,0.0,1024.19,194.5
2019-03-28 13:00,50.6304433333333,-96.9807666666667,9.2,13.3,308,995.84,-3.6,56,1.57,0.0,1024.27,360.0
2019-03-28 13:10,50.6304433333333,-96.980765,7.7,12.7,301,995.97,-3.7,57,1.57,0.0,1024.40,360.0
2019-03-28 13:20,50.6304433333333,-96.9807633333333,7.6,12.1,300,996.09,-3.8,57,1.58,0.0,1024.53,360.0
2019-03-28 13:30,50.6304416666667,-96.9807633333333,7.8,12.2,301,996.15,-3.8,57,1.57,0.0,1024.59,360.0
2019-03-28 13:40,50.6304416666667,-96.9807633333333,9.2,13.6,309,996.18,-3.9,58,1.57,0.0,1024.63,360.0
2019-03-28 13:50,50.6304416666667,-96.9807633333333,11.0,17.4,331,996.18,-3.8,57,1.58,0.0,1024.63,360.0
2019-03-28 14:00,50.6304416666667,-96.9807633333333,9.4,14.2,326,996.26,-3.7,58,1.59,0.0,1024.71,38.0
2019-03-28 14:10,50.63044,-96.9807633333333,11.1,17.6,315,996.19,-3.7,56,1.58,0.0,1024.65,38.0
2019-03-28 14:20,50.63044,-96.9807633333333,13.3,20.3,318,996.12,-3.7,53,1.56,0.0,1024.59,38.0
2019-03-28 14:30,50.6304416666667,-96.9807633333333,12.0,17.7,328,996.23,-3.7,54,1.55,0.0,1024.71,38.0
2019-03-28 14:40,50.6304416666667,-96.980765,10.9,18.2,317,996.32,-3.7,54,1.54,0.0,1024.80,38.0
2019-03-28 14:50,50.6304416666667,-96.980765,10.7,15.9,324,996.47,-3.6,55,1.54,0.0,1024.96,38.0
2019-03-28 15:00,50.6304416666667,-96.980765,10.0,14.5,324,996.55,-3.7,56,1.54,0.0,1025.05,90.0
2019-03-28 15:10,50.6304416666667,-96.9807666666667,9.6,15.7,315,996.57,-3.7,55,1.54,0.0,1025.07,90.0
2019-03-28 15:20,50.6304416666667,-96.9807666666667,8.5,13.7,322,996.63,-3.3,56,1.55,0.0,1025.11,90.0
2019-03-28 15:30,50.6304416666667,-96.9807666666667,11.2,16.5,335,996.66,-3.3,55,1.56,0.0,1025.15,90.0
2019-03-28 15:40,50.6304416666667,-96.9807666666667,11.8,18.2,318,996.54,-3.2,53,1.57,0.0,1025.01,90.0
2019-03-28 15:50,50.6304416666667,-96.9807666666667,11.2,16.1,322,996.65,-3.2,53,1.57,0.0,1025.12,90.0
2019-03-28 16:00,50.6304433333333,-96.9807683333333,10.3,17.0,334,996.76,-2.9,54,1.57,0.0,1025.23,0.0
2019-03-28 16:10,50.6304433333333,-96.9807683333333,11.5,17.0,327,996.75,-2.8,52,1.57,0.0,1025.21,0.0
2019-03-28 16:20,50.6304433333333,-96.9807683333333,10.3,14.1,314,996.89,-2.7,51,1.58,0.0,1025.34,0.0
2019-03-28 16:30,50.6304433333333,-96.9807683333333,11.6,20.5,313,996.82,-2.6,51,1.57,0.0,1025.26,0.0
2019-03-28 16:40,50.6304433333333,-96.9807666666667,12.8,17.0,328,996.80,-2.5,50,1.57,0.0,1025.23,0.0
2019-03-28 16:50,50.6304433333333,-96.9807666666667,12.3,18.7,318,996.73,-2.4,48,1.57,0.0,1025.17,0.0
2019-03-28 17:00,50.6304116666667,-96.9807433333333,10.8,16.5,326,996.81,-2.2,49,1.57,0.0,1025.23,143.8
2019-03-28 17:10,50.63043,-96.980755,10.6,16.8,313,996.89,-2.1,49,1.57,0.0,1025.29,143.8
2019-03-28 17:20,50.6304383333333,-96.9807866666667,11.2,18.0,305,996.90,-2.2,48,1.57,0.0,1025.31,143.8
2019-03-28 17:30,50.630445,-96.9807583333333,12.9,20.4,313,996.88,-2.2,46,1.57,0.0,1025.28,143.8
2019-03-28 17:40,50.630445,-96.9807633333333,13.3,18.9,317,996.98,-1.9,44,1.57,0.0,1025.37,143.8
2019-03-28 17:50,50.630445,-96.9807633333333,12.4,19.0,323,997.05,-1.6,44,1.58,0.0,1025.41,143.8
2019-03-28 18:00,50.630445,-96.980765,12.9,17.4,321,996.88,-1.7,44,1.58,0.0,1025.24,0.0
2019-03-28 18:10,50.630445,-96.9807666666667,11.9,17.4,326,996.84,-1.6,43,1.58,0.0,1025.19,0.0
2019-03-28 18:20,50.630445,-96.980765,11.4,17.3,321,996.78,-1.5,43,1.60,0.0,1025.11,0.0
2019-03-28 18:30,50.630445,-96.9807666666667,10.4,17.1,316,996.76,-1.2,42,1.61,0.0,1025.07,0.0
2019-03-28 18:40,50.630445,-96.9807683333333,11.7,17.7,296,996.68,-1.1,39,1.61,0.0,1024.98,0.0
2019-03-28 18:50,50.63047,-96.98077,9.0,16.4,312,996.74,-0.8,41,1.62,0.0,1025.01,0.0
2019-03-28 19:00,50.6304466666667,-96.980785,10.5,15.8,312,996.65,-0.9,38,1.62,0.0,1024.92,293.6
2019-03-28 19:10,50.630445,-96.9807816666667,10.3,17.7,304,996.74,-0.9,37,1.62,0.0,1025.01,293.6
2019-03-28 19:20,50.6304616666667,-96.9807716666667,9.6,15.8,321,996.83,-0.7,37,1.62,0.0,1025.09,293.6
2019-03-28 19:30,50.630445,-96.9807733333333,10.1,15.4,291,996.75,-0.5,37,1.63,0.0,1024.99,293.6
2019-03-28 19:40,50.6304416666667,-96.98077,10.6,17.6,299,996.63,-0.5,36,1.64,0.0,1024.85,293.6
2019-03-28 19:50,50.6304416666667,-96.9807666666667,9.9,16.8,307,996.58,-0.3,37,1.65,0.0,1024.79,293.6
2019-03-28 20:00,50.6304416666667,-96.980765,8.2,13.7,289,996.68,-0.1,37,1.65,0.0,1024.88,323.8
2019-03-28 20:10,50.6304433333333,-96.9807683333333,8.6,15.0,290,996.67,0.1,36,1.65,0.0,1024.85,323.8
2019-03-28 20:20,50.6304433333333,-96.9807666666667,8.7,16.6,300,996.52,0.2,35,1.66,0.0,1024.68,323.8
2019-03-28 20:30,50.63044,-96.9807666666667,10.5,17.7,286,996.38,0.2,34,1.67,0.0,1024.53,323.8
2019-03-28 20:40,50.63044,-96.9807733333333,6.5,11.1,279,996.44,0.2,33,1.68,0.0,1024.58,323.8
2019-03-28 20:50,50.63044,-96.9807733333333,10.2,16.0,278,996.39,0.1,35,1.69,0.0,1024.54,323.8
2019-03-28 21:00,50.63044,-96.980775,8.0,14.3,294,996.44,-0.1,36,1.69,0.0,1024.59,270.0
2019-03-28 21:10,50.6304283333333,-96.9807666666667,9.2,15.2,305,996.28,-0.2,36,1.71,0.0,1024.43,270.0
2019-03-28 21:20,50.6304383333333,-96.98077,8.2,15.6,285,996.28,0.2,35,1.72,0.0,1024.40,270.0
2019-03-28 21:30,50.6304383333333,-96.9807666666667,9.0,16.2,285,996.29,0.2,35,1.73,0.0,1024.40,270.0
2019-03-28 21:40,50.6304416666667,-96.980765,9.1,14.7,283,996.27,0.4,35,1.73,0.0,1024.36,270.0
2019-03-28 21:50,50.63044,-96.9807633333333,8.1,16.4,301,996.23,0.4,35,1.74,0.0,1024.31,270.0
2019-03-28 22:00,50.6304383333333,-96.980765,8.5,14.6,279,996.25,0.4,34,1.76,0.0,1024.32,111.5
2019-03-28 22:10,50.6304366666667,-96.9807633333333,8.0,12.4,282,996.17,0.5,34,1.76,0.0,1024.23,111.5
2019-03-28 22:20,50.6304333333333,-96.9807633333333,8.0,14.9,281,996.03,0.5,34,1.77,0.0,1024.09,111.5
2019-03-28 22:30,50.6304333333333,-96.9807616666667,8.1,12.9,302,995.99,0.4,33,1.79,0.0,1024.05,111.5
2019-03-28 22:40,50.6304333333333,-96.9807633333333,8.1,14.1,293,995.96,0.5,34,1.80,0.0,1024.03,111.5
2019-03-28 22:50,50.6304333333333,-96.9807633333333,9.0,14.4,298,995.86,0.5,33,1.80,0.0,1023.92,111.5
2019-03-28 23:00,50.630435,-96.9807633333333,8.7,15.1,303,995.85,0.6,33,1.81,0.0,1023.92,142.0
2019-03-28 23:10,50.630435,-96.9807633333333,8.3,14.9,293,995.95,0.5,35,1.82,0.0,1024.01,142.0
2019-03-28 23:20,50.630435,-96.9807633333333,7.6,12.5,302,995.95,0.6,36,1.83,0.0,1024.00,142.0
2019-03-28 23:30,50.6304366666667,-96.980765,7.9,14.7,294,995.88,0.4,37,1.84,0.0,1023.93,142.0
2019-03-28 23:40,50.6304366666667,-96.980765,9.0,13.5,267,995.88,0.1,36,1.85,0.0,1023.95,142.0
2019-03-28 23:50,50.6304483333333,-96.9807733333333,8.4,12.2,274,995.76,-0.1,37,1.86,0.0,1023.83,142.0
